BEIDOU-3 M14 (C33)

Last updated on Jan. 24, 2021, 6:19 a.m. UTC

1 43623U 18072B   21023.69032744 -.00000031  00000-0  00000-0 0  9994
2 43623  55.2233 128.4936 0003460 312.0280 343.1490  1.86231486 15955
UTC
Height (km)
Latitude
Longitude
Inclination
Orbital Period
UTC large
Height (km)
Speed (km/s)
/
Latitude / Longitude
Inclination (degrees)
Orbital Period (minutes)
Azimuth
Elevation
Range (km)
Doppler Factor
iOS Compass Heading
iOS Angle

Next 30 passes for location: Hong Kong

Rise time Rise Azimuth (degrees) Set time Set Azimuth (degrees) Duration Max altitude (degrees)

No matching passes for this satellites